TimeCST,TemperatureF,Dew PointF,Humidity,Sea Level PressureIn,VisibilityMPH,Wind Direction,Wind SpeedMPH,Gust SpeedMPH,PrecipitationIn,Events,Conditions,WindDirDegrees,DateUTC
12:54 AM,37.0,28.0,70,30.29,10.0,South,5.8,-,N/A,,Clear,180,2012-11-15 06:54:00
1:54 AM,37.0,28.0,70,30.28,10.0,South,6.9,-,N/A,,Partly Cloudy,170,2012-11-15 07:54:00
2:54 AM,37.0,28.0,70,30.27,10.0,South,6.9,-,N/A,,Mostly Cloudy,180,2012-11-15 08:54:00
3:54 AM,37.0,28.0,70,30.27,10.0,South,6.9,-,N/A,,Mostly Cloudy,180,2012-11-15 09:54:00
4:54 AM,36.0,28.0,73,30.27,10.0,South,5.8,-,N/A,,Mostly Cloudy,170,2012-11-15 10:54:00
5:54 AM,36.0,28.0,73,30.27,10.0,South,5.8,-,N/A,,Overcast,180,2012-11-15 11:54:00
6:54 AM,37.0,28.0,70,30.27,10.0,South,6.9,-,N/A,,Overcast,190,2012-11-15 12:54:00
7:54 AM,37.9,28.0,68,30.28,10.0,South,8.1,-,N/A,,Scattered Clouds,190,2012-11-15 13:54:00
8:54 AM,39.9,28.0,63,30.27,10.0,SSW,9.2,-,N/A,,Scattered Clouds,200,2012-11-15 14:54:00
9:54 AM,44.1,28.9,55,30.28,10.0,SSW,8.1,-,N/A,,Clear,210,2012-11-15 15:54:00
10:54 AM,46.0,28.9,51,30.28,10.0,South,6.9,-,N/A,,Mostly Cloudy,190,2012-11-15 16:54:00
11:54 AM,48.0,28.9,48,30.27,10.0,SW,3.5,-,N/A,,Scattered Clouds,230,2012-11-15 17:54:00
12:54 PM,48.9,28.9,46,30.25,10.0,South,8.1,-,N/A,,Partly Cloudy,190,2012-11-15 18:54:00
1:54 PM,48.9,30.0,48,30.25,10.0,South,5.8,-,N/A,,Partly Cloudy,180,2012-11-15 19:54:00
2:54 PM,51.1,28.9,43,30.25,10.0,South,6.9,-,N/A,,Clear,190,2012-11-15 20:54:00
3:54 PM,48.9,28.9,46,30.27,10.0,WSW,4.6,-,N/A,,Clear,240,2012-11-15 21:54:00
4:54 PM,45.0,28.9,53,30.29,10.0,West,4.6,-,N/A,,Clear,260,2012-11-15 22:54:00
5:54 PM,41.0,28.0,60,30.31,10.0,West,3.5,-,N/A,,Clear,260,2012-11-15 23:54:00
6:54 PM,35.1,28.9,78,30.34,10.0,Calm,Calm,-,N/A,,Clear,0,2012-11-16 00:54:00
7:54 PM,33.1,28.0,82,30.35,10.0,Calm,Calm,-,N/A,,Clear,0,2012-11-16 01:54:00
8:54 PM,30.9,28.0,89,30.35,10.0,Calm,Calm,-,N/A,,Clear,0,2012-11-16 02:54:00
9:54 PM,30.0,25.0,82,30.38,10.0,North,5.8,-,N/A,,Clear,350,2012-11-16 03:54:00
10:54 PM,34.0,28.0,79,30.40,10.0,NNE,8.1,-,N/A,,Clear,20,2012-11-16 04:54:00
11:54 PM,33.1,26.1,75,30.41,10.0,NNE,6.9,-,N/A,,Clear,30,2012-11-16 05:54:00